Change the Weather History Date:

Monday, March 11, 2013

  Actual Average (KPNC) Record (KPNC)
Temperature  
Mean Temperature 37 °F -  
Max Temperature 50 °F 60 °F 90 °F (1967)
Min Temperature 24 °F 37 °F -2 °F (1948)
Degree Days  
Heating Degree Days 28    
Moisture  
Dew Point 22 °F    
Average Humidity 60    
Maximum Humidity 93    
Minimum Humidity 30    
Precipitation  
Precipitation 0.00 in - - ()
Sea Level Pressure  
Sea Level Pressure 30.01 in    
Wind  
Wind Speed 10 mph (NW)    
Max Wind Speed 20 mph    
Max Gust Speed 24 mph    
Visibility 10 miles    
Events      
Averages and records for this station are not official NWS values.
T = Trace of Precipitation, MM = Missing Value Source: NWS Daily Summary

Daily Weather History Graph

Daily Weather History Graph

Search for Another Location

Airport or City:

Trip Planner

Search our weather history database for the weather conditions in past years. The results will help you decide how hot, cold, wet, or windy it might be!

Date:

Astronomy

Mar. 11, 2013 Rise Set
Actual Time 7:45 AM CDT 7:33 PM CDT
Civil Twilight 7:19 AM CDT 7:59 PM CDT
Nautical Twilight 6:49 AM CDT 8:29 PM CDT
Astronomical Twilight 6:19 AM CDT 8:59 PM CDT
Moon 7:20 AM CDT (3/11) 7:45 PM CDT (3/11)
Length of Visible Light 12h 39m
Length of Day
11h 47m
Waning Crescent, 0% of the Moon is Illuminated
Mar 11
Waning Crescent
Mar 11
New
Mar 19
First Quarter
Mar 27
Full
Apr 2
Last Quarter

Hourly Weather History & Observations

Time (CDT) Temp. Windchill Dew Point Humidity Pressure Visibility Wind Dir Wind Speed Gust Speed Precip Events Conditions
12:15 AM 32.0 °F 23.0 °F 24.8 °F 75% 30.05 in 10.0 mi NW 11.5 mph 17.3 mph N/A   Overcast
12:35 AM 32.0 °F 21.2 °F 24.8 °F 75% 30.04 in 10.0 mi NW 16.1 mph - N/A   Overcast
12:55 AM 32.0 °F 23.0 °F 24.8 °F 75% 30.03 in 10.0 mi NW 11.5 mph 18.4 mph N/A   Overcast
1:15 AM 32.0 °F 22.5 °F 24.8 °F 75% 30.03 in 10.0 mi NW 12.7 mph - N/A   Overcast
1:55 AM 32.0 °F 23.6 °F 24.8 °F 75% 30.03 in 10.0 mi NNW 10.4 mph - N/A   Overcast
2:15 AM 32.0 °F 24.8 °F 23.0 °F 69% 30.03 in 10.0 mi NW 8.1 mph - N/A   Overcast
2:35 AM 32.0 °F 25.6 °F 23.0 °F 69% 30.02 in 10.0 mi NW 6.9 mph - N/A   Mostly Cloudy
2:55 AM 30.2 °F 25.4 °F 24.8 °F 80% 30.02 in 10.0 mi WNW 4.6 mph - N/A   Clear
3:35 AM 28.4 °F 22.2 °F 24.8 °F 86% 30.02 in 10.0 mi WNW 5.8 mph - N/A   Partly Cloudy
3:55 AM 28.4 °F 21.2 °F 24.8 °F 86% 30.02 in 10.0 mi WNW 6.9 mph - N/A   Clear
4:15 AM 28.4 °F 19.7 °F 24.8 °F 86% 30.00 in 10.0 mi NW 9.2 mph - N/A   Clear
4:35 AM 28.4 °F 20.4 °F 24.8 °F 86% 30.00 in 10.0 mi WNW 8.1 mph - N/A   Clear
4:55 AM 28.4 °F 18.0 °F 23.0 °F 80% 30.00 in 10.0 mi NW 12.7 mph - N/A   Clear
5:15 AM 28.4 °F 18.5 °F 23.0 °F 80% 30.00 in 10.0 mi WNW 11.5 mph - N/A   Clear
5:35 AM 28.4 °F 20.4 °F 23.0 °F 80% 30.00 in 10.0 mi WNW 8.1 mph - N/A   Clear
5:55 AM 26.6 °F 18.2 °F 23.0 °F 86% 30.00 in 10.0 mi WNW 8.1 mph - N/A   Clear
6:15 AM 26.6 °F 17.5 °F 23.0 °F 86% 30.01 in 10.0 mi West 9.2 mph - N/A   Clear
6:35 AM 26.6 °F 16.8 °F 23.0 °F 86% 30.01 in 10.0 mi West 10.4 mph - N/A   Clear
6:55 AM 26.6 °F 16.8 °F 23.0 °F 86% 30.01 in 10.0 mi West 10.4 mph - N/A   Clear
7:15 AM 26.6 °F 16.8 °F 23.0 °F 86% 30.02 in 10.0 mi WNW 10.4 mph - N/A   Clear
7:35 AM 26.6 °F 16.8 °F 23.0 °F 86% 30.01 in 10.0 mi WNW 10.4 mph - N/A   Clear
7:55 AM 24.8 °F 16.9 °F 21.2 °F 86% 30.01 in 10.0 mi WNW 6.9 mph - N/A   Clear
8:15 AM 24.8 °F 16.9 °F 23.0 °F 93% 30.02 in 10.0 mi WNW 6.9 mph - N/A   Clear
8:35 AM 26.6 °F 20.0 °F 21.2 °F 80% 30.01 in 10.0 mi NW 5.8 mph - N/A   Clear
8:55 AM 26.6 °F 15.2 °F 19.4 °F 74% 30.02 in 10.0 mi NW 13.8 mph - N/A   Clear
9:15 AM 28.4 °F 16.6 °F 19.4 °F 69% 30.02 in 10.0 mi NW 16.1 mph 21.9 mph N/A   Clear
9:35 AM 28.4 °F 15.4 °F 19.4 °F 69% 30.04 in 10.0 mi NW 19.6 mph 24.2 mph N/A   Clear
9:55 AM 30.2 °F 18.1 °F 19.4 °F 64% 30.04 in 10.0 mi NW 18.4 mph 21.9 mph N/A   Clear
10:15 AM 32.0 °F 21.2 °F 19.4 °F 60% 30.04 in 10.0 mi NW 16.1 mph - N/A   Clear
10:35 AM 32.0 °F 22.1 °F 19.4 °F 60% 30.03 in 10.0 mi NW 13.8 mph - N/A   Clear
10:55 AM 32.0 °F 21.6 °F 19.4 °F 60% 30.04 in 10.0 mi NW 15.0 mph - N/A   Clear
11:15 AM 33.8 °F 25.3 °F 19.4 °F 56% 30.04 in 10.0 mi NW 11.5 mph 18.4 mph N/A   Clear
11:35 AM 35.6 °F 27.1 °F 19.4 °F 52% 30.04 in 10.0 mi NNW 12.7 mph 20.7 mph N/A   Clear
11:55 AM 35.6 °F 27.5 °F 19.4 °F 52% 30.04 in 10.0 mi NW 11.5 mph - N/A   Clear
12:15 PM 37.4 °F 29.3 °F 19.4 °F 48% 30.03 in 10.0 mi NNW 12.7 mph - N/A   Clear
12:35 PM 37.4 °F 29.8 °F 19.4 °F 48% 30.02 in 10.0 mi North 11.5 mph - N/A   Clear
12:55 PM 39.2 °F 31.2 °F 21.2 °F 49% 30.01 in 10.0 mi NW 13.8 mph - N/A   Clear
1:15 PM 39.2 °F 33.0 °F 19.4 °F 45% 30.01 in 10.0 mi NNW 9.2 mph - N/A   Clear
1:35 PM 41.0 °F 33.9 °F 19.4 °F 42% 30.01 in 10.0 mi NW 12.7 mph - N/A   Clear
1:55 PM 41.0 °F 34.7 °F 17.6 °F 39% 30.01 in 10.0 mi WNW 10.4 mph 19.6 mph N/A   Clear
2:15 PM 42.8 °F 37.5 °F 19.4 °F 39% 30.00 in 10.0 mi NW 9.2 mph - N/A   Clear
2:35 PM 44.6 °F 39.7 °F 19.4 °F 37% 29.99 in 10.0 mi NW 9.2 mph - N/A   Clear
2:55 PM 44.6 °F 38.8 °F 19.4 °F 37% 29.99 in 10.0 mi NW 11.5 mph 16.1 mph N/A   Clear
3:15 PM 46.4 °F 41.5 °F 21.2 °F 37% 29.99 in 10.0 mi NW 10.4 mph - N/A   Clear
3:35 PM 46.4 °F 41.5 °F 19.4 °F 34% 29.99 in 10.0 mi NNW 10.4 mph - N/A   Clear
3:55 PM 48.2 °F - 19.4 °F 32% 29.98 in 10.0 mi NW 9.2 mph - N/A   Clear
4:15 PM 48.2 °F - 19.4 °F 32% 29.98 in 10.0 mi WNW 8.1 mph - N/A   Clear
4:35 PM 48.2 °F - 19.4 °F 32% 29.97 in 10.0 mi NNW 9.2 mph - N/A   Clear
4:55 PM 48.2 °F - 17.6 °F 30% 29.97 in 10.0 mi NW 4.6 mph - N/A   Clear
5:15 PM 50.0 °F - 19.4 °F 30% 29.97 in 10.0 mi WNW 5.8 mph - N/A   Clear
5:35 PM 50.0 °F - 19.4 °F 30% 29.97 in 10.0 mi WNW 9.2 mph - N/A   Clear
5:55 PM 50.0 °F - 19.4 °F 30% 29.96 in 10.0 mi North 3.5 mph - N/A   Clear
6:15 PM 50.0 °F - 19.4 °F 30% 29.96 in 10.0 mi WNW 6.9 mph - N/A   Clear
6:35 PM 50.0 °F - 19.4 °F 30% 29.97 in 10.0 mi West 4.6 mph - N/A   Clear
6:55 PM 50.0 °F - 19.4 °F 30% 29.97 in 10.0 mi Calm Calm - N/A   Clear
7:15 PM 48.2 °F - 23.0 °F 37% 29.97 in 10.0 mi WNW 3.5 mph - N/A   Clear
7:35 PM 46.4 °F - 32.0 °F 57% 29.98 in 10.0 mi Calm Calm - N/A   Clear
8:15 PM 46.4 °F - 24.8 °F 43% 29.98 in 10.0 mi Calm Calm - N/A   Clear
8:35 PM 44.6 °F - 26.6 °F 49% 29.99 in 10.0 mi Calm Calm - N/A   Scattered Clouds
8:55 PM 44.6 °F 43.1 °F 26.6 °F 49% 29.99 in 10.0 mi East 3.5 mph - N/A   Scattered Clouds
9:15 PM 41.0 °F 37.1 °F 28.4 °F 61% 29.99 in 2.5 mi East 5.8 mph - N/A   Haze
9:35 PM 41.0 °F 36.4 °F 26.6 °F 57% 29.99 in 2.0 mi East 6.9 mph - N/A   Haze
9:55 PM 39.2 °F 33.6 °F 26.6 °F 61% 29.99 in 5.0 mi ENE 8.1 mph - N/A   Haze
10:15 PM 39.2 °F 35.0 °F 24.8 °F 56% 29.99 in 10.0 mi East 5.8 mph - N/A   Clear
10:35 PM 37.4 °F 33.8 °F 24.8 °F 60% 29.99 in 10.0 mi ESE 4.6 mph - N/A   Clear
10:55 PM 37.4 °F 33.8 °F 26.6 °F 65% 30.00 in 10.0 mi SE 4.6 mph - N/A   Clear
11:15 PM 37.4 °F 33.8 °F 26.6 °F 65% 30.01 in 10.0 mi South 4.6 mph - N/A   Mostly Cloudy
11:35 PM 37.4 °F - 26.6 °F 65% 30.01 in 10.0 mi Calm Calm - N/A   Mostly Cloudy
11:55 PM 37.4 °F - 24.8 °F 60% 30.02 in 10.0 mi Calm Calm - N/A   Partly Cloudy